Location: Unspecified
(0.0000°N, 0.0000°E)
Time: 20:42:39
(UTC+00:00)

deb Delta 104 - Visible Passes

Search period start: 06 March 2026 00:00
Search period end: 16 March 2026 00:00
Orbit: 1403 x 1485 km, 102.0° (Epoch: 6 March)

Date Brightness Start Highest point End Pass type
(mag) Time Alt. Az. Time Alt. Az. Time Alt. Az.
6 Mar ? 18:27:25 10° SSE 18:35:37 87° WSW 18:43:56 10° NNW visible
7 Mar ? 05:03:49 10° ENE 05:09:18 19° ESE 05:14:42 10° SSE visible
7 Mar ? 19:19:39 10° SSW 19:26:49 35° WSW 19:34:05 10° NW visible
8 Mar ? 18:17:33 10° SSE 18:25:45 80° ENE 18:34:03 10° NNW visible
8 Mar ? 20:15:45 10° WSW 20:17:54 11° WSW 20:20:04 10° W visible
9 Mar ? 04:55:07 10° ENE 04:59:27 15° ESE 05:03:45 10° SE visible
9 Mar ? 19:09:24 10° S 19:16:56 42° WSW 19:24:37 10° NW visible
10 Mar ? 05:42:49 10° NE 05:50:35 43° ESE 05:58:13 10° S visible
10 Mar ? 20:03:58 10° SW 20:08:04 15° WSW 20:12:13 10° WNW visible
11 Mar ? 04:47:06 10° E 04:49:38 12° ESE 04:52:08 10° SE visible
11 Mar ? 18:59:14 10° S 19:07:05 51° WSW 19:15:03 10° NNW visible
12 Mar ? 05:33:19 10° NE 05:40:43 35° ESE 05:47:59 10° S visible
12 Mar ? 19:52:59 10° SSW 19:58:14 19° WSW 20:03:33 10° WNW visible
13 Mar ? 18:49:09 10° S 18:57:12 61° WSW 19:05:23 10° NNW visible
14 Mar ? 05:23:58 10° NE 05:30:52 29° ESE 05:37:39 10° SSE visible
14 Mar ? 19:42:18 10° SSW 19:48:22 23° WSW 19:54:33 10° WNW visible
15 Mar ? 18:39:08 10° S 18:47:20 73° WSW 18:55:40 10° NNW visible
